Home > Weather > Osterode am Harz > Past weeks

Flag for Germany Weather for the Past 2 Weeks in Osterode am Harz, Lower Saxony, Germany

Now
54 °F

Passing clouds.


Feels Like: 49 °F
Forecast: 42 / 50 °F
Wind: 14 mph from Southwest

Location: Braunschweig Wolfsburg

Current Time: Feb 6, 2016 at 3:36:53 PM

Latest Report: Feb 6, 2016 at 2:50 PM


Visibility: N/A

Pressure: 29.83 "Hg

Humidity: 63%

Dew point: 41 °F

Location of Osterode am HarzLocation

Historic Weather in Osterode am Harz — Graph

°F

Osterode am Harz Temperature Yesterday

Maximum temperature yesterday: 46 °F (at 9:50 PM)
Minimum temperature yesterday: 37 °F (at 5:50 AM)
Average temperature yesterday: 41 °F

High & Low Weather Summary for the Past Weeks

 TemperatureHumidityPressure
High54 °F (Feb 1, 12:20 PM)100% (Jan 23, 8:20 AM)30.45 "Hg (Jan 23, 8:20 AM)
Low16 °F (Jan 22, 7:20 PM)54% (Feb 2, 10:50 AM)29.59 "Hg (Jan 30, 3:50 PM)
Average44 °F79%30.04 "Hg
* Reported Jan 22 2:20 PM — Feb 6 2:20 PM, Osterode am Harz, Weather by CustomWeather, © 2016

Note: Actual official high and low records may vary slightly from our data, if they occured in-between our weather recording intervals... More about our weather records

Advertising

Osterode am Harz Weather History for the Previous 24 Hours

 ConditionsComfort  
Time TempWeatherWind HumidityBarometerVisibility
2:20 PM
Sat, Feb 6
54 °FPassing clouds.15 mph63%29.83 "HgN/A
1:50 PM54 °FCool.14 mph63%29.83 "HgN/A
1:20 PM54 °FCool.15 mph63%29.86 "HgN/A
12:50 PM54 °FSunny.16 mph63%29.86 "Hg10 mi
12:20 PM52 °FPassing clouds.16 mph67%29.89 "HgN/A
11:50 AM50 °FSunny.10 mph71%29.89 "Hg10 mi
10:50 AM48 °FPassing clouds.5 mph76%29.92 "HgN/A
10:20 AM46 °FSunny.7 mph82%29.92 "Hg10 mi
9:50 AM46 °FSunny.6 mph76%29.95 "Hg10 mi
9:20 AM45 °FSunny.8 mph81%29.95 "Hg10 mi
8:50 AM45 °FSunny.9 mph81%29.95 "Hg10 mi
8:20 AM45 °FSunny.7 mph81%29.95 "Hg10 mi
7:50 AM46 °FClear.6 mph76%29.98 "Hg10 mi
7:20 AM45 °FClear.6 mph81%29.98 "Hg10 mi
6:50 AM46 °FPassing clouds.7 mph82%29.98 "HgN/A
9:50 PM
Fri, Feb 5
46 °FOvercast.10 mph87%30.09 "HgN/A
9:20 PM45 °FMostly cloudy.10 mph93%30.09 "HgN/A
8:50 PM45 °FMostly cloudy.8 mph93%30.12 "HgN/A
8:20 PM45 °FMostly cloudy.13 mph93%30.12 "HgN/A
7:50 PM45 °FMostly cloudy.10 mph87%30.12 "HgN/A
7:20 PM45 °FOvercast.14 mph87%30.12 "HgN/A
6:50 PM45 °FOvercast.12 mph87%30.12 "HgN/A
6:20 PM43 °FMostly cloudy.12 mph93%30.12 "HgN/A
5:50 PM43 °FMostly cloudy.12 mph93%30.12 "HgN/A
5:20 PM43 °FPartly cloudy.13 mph93%30.12 "HgN/A
4:50 PM43 °FBroken clouds.13 mph93%30.12 "HgN/A
4:20 PM43 °FMore clouds than sun.12 mph87%30.12 "HgN/A
3:50 PM41 °FDrizzle. Overcast.10 mph93%30.12 "HgN/A
3:20 PM41 °FDrizzle. Partly sunny.13 mph93%30.12 "Hg6 mi
Weather by CustomWeather, © 2016

See weather overviewHow to use our weather pages